Moab, UT

8:03 PM MDT on October 22, 2019 (GMT -0600)
Canyonlands

Weather History for KCNY - August, 2019

Change the Weather History Date:

Tuesday, August 27, 2019

  Actual Average Record
Temperature  
Mean Temperature 76 °F 74 °F  
Max Temperature 93 °F 89 °F 106 °F (1985)
Min Temperature 58 °F 59 °F 40 °F (1931)
Degree Days  
Heating Degree Days 0 0  
Month to date heating degree days 0 0  
Since 1 June heating degree days 23 17  
Since 1 July heating degree days 0 0  
Cooling Degree Days 11 9  
Month to date cooling degree days 422 338  
Year to date cooling degree days 1195 1131  
Since 1 June cooling degree days 1180 1067  
Growing Degree Days 25 (Base 50)    
Moisture  
Dew Point 13 °F    
Average Humidity 12    
Maximum Humidity 20    
Minimum Humidity 3    
Precipitation  
Precipitation 0.00 in 0.03 in 0.85 in (2007)
Month to date precipitation 0.02 0.71  
Year to date precipitation 6.17 5.25  
Sea Level Pressure  
Sea Level Pressure 29.88 in    
Wind  
Wind Speed 3 mph (WNW)    
Max Wind Speed 13 mph    
Max Gust Speed 19 mph    
Visibility 10 miles    
Events      
T = Trace of Precipitation, MM = Missing Value Source: NWS Daily Summary

Daily Weather History Graph

Daily Weather History Graph

Search for Another Location

Airport or City:

Astronomy

Aug. 27, 2019 Rise Set
Actual Time 6:43 AM MDT 7:56 PM MDT
Civil Twilight 6:15 AM MDT 8:24 PM MDT
Nautical Twilight 5:42 AM MDT 8:57 PM MDT
Astronomical Twilight 5:08 AM MDT 9:31 PM MDT
Moon 3:13 AM MDT (8/27) 6:18 PM MDT (8/27)
Length of Visible Light 14h 08m
Length of Day
13h 13m
Waning Crescent, 10% of the Moon is Illuminated
Aug 27
Waning Crescent
Aug 30
New
Sep 5
First Quarter
Sep 13
Full
Sep 21
Last Quarter

Hourly Weather History & Observations

Time (MDT) Temp. Dew Point Humidity Pressure Visibility Wind Dir Wind Speed Gust Speed Precip Events Conditions
12:53 AM 75.0 °F 23.0 °F 14% 29.81 in 10.0 mi Variable 4.6 mph - N/A   Clear
1:53 AM 70.0 °F 21.0 °F 16% 29.82 in 10.0 mi Calm Calm - N/A   Clear
2:53 AM 66.0 °F 19.9 °F 17% 29.84 in 10.0 mi Calm Calm - N/A   Clear
3:53 AM 64.9 °F 19.9 °F 18% 29.84 in 10.0 mi West 5.8 mph - N/A   Clear
4:53 AM 64.0 °F 18.0 °F 17% 29.85 in 10.0 mi Calm Calm - N/A   Clear
5:53 AM 61.0 °F 19.0 °F 20% 29.88 in 10.0 mi West 4.6 mph - N/A   Clear
6:53 AM 59.0 °F 18.0 °F 20% 29.90 in 10.0 mi West 5.8 mph - N/A   Clear
7:53 AM 64.9 °F 19.9 °F 18% 29.93 in 10.0 mi Calm Calm - N/A   Clear
8:53 AM 72.0 °F 19.9 °F 14% 29.94 in 10.0 mi ESE 3.5 mph - N/A   Clear
9:53 AM 77.0 °F 16.0 °F 10% 29.94 in 10.0 mi Calm Calm - N/A   Clear
10:53 AM 82.9 °F 18.0 °F 9% 29.92 in 10.0 mi NNE 4.6 mph - N/A   Clear
11:53 AM 84.9 °F 17.1 °F 8% 29.92 in 10.0 mi Variable 6.9 mph - N/A   Clear
12:53 PM 84.9 °F 15.1 °F 7% 29.91 in 10.0 mi Calm Calm - N/A   Clear
1:53 PM 90.0 °F 9.0 °F 5% 29.89 in 10.0 mi West 9.2 mph - N/A   Clear
2:53 PM 90.0 °F 7.0 °F 4% 29.88 in 10.0 mi West 8.1 mph - N/A   Clear
3:53 PM 91.9 °F 5.0 °F 4% 29.86 in 10.0 mi NW 8.1 mph - N/A   Clear
4:53 PM 91.9 °F 3.9 °F 4% 29.85 in 10.0 mi Variable 3.5 mph - N/A   Clear
5:53 PM 91.9 °F -4.0 °F 4% 29.85 in 10.0 mi WSW 9.2 mph - N/A   Clear
6:53 PM 91.0 °F 6.1 °F 4% 29.84 in 10.0 mi WNW 3.5 mph - N/A   Clear
7:53 PM 84.9 °F 7.0 °F 5% 29.84 in 10.0 mi Calm Calm - N/A   Clear
8:53 PM 78.1 °F 9.0 °F 7% 29.86 in 10.0 mi Calm Calm - N/A   Clear
9:53 PM 73.9 °F 7.0 °F 8% 29.87 in 10.0 mi Calm Calm - N/A   Clear
10:53 PM 69.1 °F 6.1 °F 9% 29.87 in 10.0 mi West 4.6 mph - N/A   Clear
11:53 PM 66.0 °F 6.1 °F 9% 29.89 in 10.0 mi NE 3.5 mph - N/A   Clear